Regional Weather Roundup
Issued by NWS

Home | Current Version | Previous Version | Text Only | Print | Product List | Glossary Off
Versions: 1 2 3 4 5 6 7 8 9 10 11 12 13 14 15 16 17 18 19 20 21 22 23 24 25 26 27 28 29 30 31 32 33 34 35 36 37 38 39 40 41 42 43 44 45 46 47 48 49 50

000
ASUS43 KMKX 270600
RWRWI

WISCONSIN REGIONAL WEATHER ROUNDUP
NATIONAL WEATHER SERVICE MILWAUKEE/SULLIVAN WI
1200 AM CST MON FEB 27 2017

NOTE: "FAIR" INDICATES FEW OR NO CLOUDS BELOW 12,000 FEET WITH NO
SIGNIFICANT WEATHER AND/OR OBSTRUCTIONS TO VISIBILITY.

WIZ001-002-006>008-014>016-023>028-270700-
NORTHWEST WISCONSIN

CITY           SKY/WX    TMP DP  RH WIND       PRES   REMARKS
SUPERIOR ARPT  CLEAR      7   3  85 CALM      29.96S
ASHLAND        CLEAR      8   4  83 S3        29.97R
6HR MIN TEMP:   8; 6HR MAX TEMP:  22;

HAYWARD        MOCLDY    11   7  84 NE3       29.94R
6HR MIN TEMP:  11; 6HR MAX TEMP:  25;

SIREN          CLOUDY    20  12  71 CALM      29.95R
CUMBERLAND     CLOUDY    23  16  74 CALM      29.94S
RICE LAKE      CLOUDY    24  15  69 CALM      29.97R
CHETEK         CLOUDY    21  13  72 CALM      29.97R
LADYSMITH      MOCLDY    15  10  80 SE3       29.97R
EAU CLAIRE     NOT AVBL
MENOMONIE      CLOUDY    25  17  69 CALM      29.97S
NEW RICHMOND   CLOUDY    27  16  62 CALM      29.95S
OSCEOLA        CLOUDY    27  18  70 SE3       29.98S
$$

WIZ003>005-009-010-017-018-270700-
NORTH CENTRAL WISCONSIN

CITY           SKY/WX    TMP DP  RH WIND       PRES   REMARKS
MANITOWISH WTR CLEAR     -1  -3  93 CALM      29.91S
ARBOR VITAE    CLEAR      7   4  89 CALM        N/A
WOODRUFF       CLEAR      7   4  89 CALM        N/A
RHINELANDER    CLEAR    N/A N/A N/A CALM      29.94R
EAGLE RIVER    CLEAR      4   1  86 CALM      29.92R
LAND O LAKES   CLEAR     -1  -5  85 CALM      29.93R
PHILLIPS       CLEAR      6   6  97 CALM      29.92S
TOMAHAWK       CLEAR      7   5  91 CALM      29.95R
MEDFORD        CLEAR     13   9  86 S3        29.94R
MERRILL        NOT AVBL
$$

WIZ029-030-035-036-043>047-270700-
CENTRAL WISCONSIN

CITY           SKY/WX    TMP DP  RH WIND       PRES   REMARKS
WAUSAU         CLEAR     23  13  65 CALM      29.96R
6HR MIN TEMP:  23; 6HR MAX TEMP:  31;

MOSINEE        CLEAR     23  21  93 SW6       29.97R WCI  16
MARSHFIELD     MOCLDY    23  19  85 W7        29.96R WCI  15
6HR MIN TEMP:  23; 6HR MAX TEMP:  31;

STEVENS POINT  CLEAR     26  21  81 W6        29.98R WCI  19
WAUPACA        CLEAR     30  22  70 W6        29.99R WCI  24
WAUTOMA        CLEAR     27  22  81 W7        30.01  WCI  19
6HR MIN TEMP:  27; 6HR MAX TEMP:  37;

WISC RAPIDS    CLEAR     27  22  81 W6        30.00R WCI  20
6HR MIN TEMP:  27; 6HR MAX TEMP:  35;

CAMP DOUGLAS   NOT AVBL
$$

WIZ011>013-019>022-031-037>040-048>050-270700-
NORTHEAST WISCONSIN

CITY           SKY/WX    TMP DP  RH WIND       PRES   REMARKS
ANTIGO         CLEAR     16  10  77 N3        29.94R
SHAWANO        MOCLDY    31  21  66 CALM      29.98R
6HR MIN TEMP:  31; 6HR MAX TEMP:  37;

OCONTO         CLOUDY    30  21  69 N7        29.98R WCI  23
STURGEON BAY   CLOUDY    28  22  78 N12       29.99R WCI  18
6HR MIN TEMP:  28; 6HR MAX TEMP:  36;

GREEN BAY      CLEAR     30  22  72 W8        29.99R WCI  22
6HR MIN TEMP:  30; 6HR MAX TEMP:  39;

MANITOWOC      NOT AVBL
APPLETON       CLEAR     30  19  64 W7        29.97R WCI  23
CLINTONVILLE   CLEAR     28  19  69 W5        29.98R WCI  23
OSHKOSH        CLEAR     30  20  66 W6        30.00R WCI  24
6HR MIN TEMP:  30; 6HR MAX TEMP:  37;

$$

WIZ032>034-041-042-053>061-270700-
SOUTHWEST WISCONSIN

CITY           SKY/WX    TMP DP  RH WIND       PRES   REMARKS
LA CROSSE      CLEAR     29  22  75 S8        30.02R WCI  21
6HR MIN TEMP:  28; 6HR MAX TEMP:  35;

SPARTA         CLEAR     21  19  94 E5        30.02S WCI  14
VIROQUA        CLEAR     25  23  93 SW5       30.00R WCI  19
BOSCOBEL       CLEAR     24  22  91 CALM      30.05R
6HR MIN TEMP:  24; 6HR MAX TEMP:  39;

PRAIRIE DU CHI CLEAR     27  22  83 CALM      30.04R
PLATTEVILLE    CLEAR     29  26  86 SW3       30.03R
$$

WIZ056-057-062-063-064-067-068-270700-
SOUTH CENTRAL WISCONSIN

CITY           SKY/WX    TMP DP  RH WIND       PRES   REMARKS
REEDSBURG      CLEAR     29  23  78 W6        30.01R WCI  23
BARABOO/DELLS  CLEAR     28  22  78 SW5       30.01R WCI  23
LONE ROCK      NOT AVBL
MINERAL POINT  CLEAR     32  28  86 W3        30.01S
MADISON        CLEAR     28  22  78 CALM      30.03R
6HR MIN TEMP:  28; 6HR MAX TEMP:  39;

MIDDLETON      CLEAR     31  25  78 W3        30.02S
WATERTOWN      CLEAR     31  23  72 CALM      30.02R
MONROE         CLEAR     32  25  74 W8        30.03R WCI  25
JANESVILLE     CLEAR     30  23  74 SW6       30.05R WCI  24
$$

WIZ051-052-058>065-066-070>072-270700-
SOUTHEAST WISCONSIN

CITY           SKY/WX    TMP DP  RH WIND       PRES   REMARKS
MILWAUKEE      PTCLDY    35  23  61 W7        30.04R WCI  29
6HR MIN TEMP:  34; 6HR MAX TEMP:  43;

WAUKESHA       CLEAR     30  23  74 W8        30.03R WCI  23
MILWAUKEE/TIMM PTCLDY    32  21  64 SW5       30.03R WCI  27
RACINE         CLEAR     34  27  75 SW7       30.06R WCI  28
6HR MIN TEMP:  34; 6HR MAX TEMP:  41;

KENOSHA        CLOUDY    34  29  82 W9        30.05R WCI  27
6HR MIN TEMP:  34; 6HR MAX TEMP:  40;

FOND DU LAC    CLEAR     29  20  69 SW5       30.01R WCI  24
6HR MIN TEMP:  29; 6HR MAX TEMP:  37;

SHEBOYGAN      CLEAR     31  21  66 W9        30.01R WCI  23
6HR MIN TEMP:  30; 6HR MAX TEMP:  37;

WEST BEND      CLEAR     32  23  69 W7        30.01R WCI  26
JUNEAU         CLEAR     31  22  71 W7        30.02S WCI  24
$$

LSZ147-162-270700-
LAKE SUPERIOR

STATION/POSITION TIME  TEMP    WIND        PRES    WAVE
                       AIR SEA DIR/SP/G            HT/PER
                 (UTC) (F)     (DEG/KT/KT) (MB)    (FT/S)
DEVILS ISLAND    0500   25     260/ 14/ 17 1015.0R
PORT WING        0540   12     140/  3/  6 1014.6S
SAXON HARBOR     0540   11     200/  4/  7 1014.6S
$$

LMZ867-665-643>646-270700-
LAKE MICHIGAN

STATION/POSITION TIME  TEMP    WIND        PRES    WAVE
                       AIR SEA DIR/SP/G            HT/PER
                 (UTC) (F)     (DEG/KT/KT) (MB)    (FT/S)
CHAMBERS ISLAND  0540   26     320/ 12/ 15 1015.2R
NORTHPORT PIER   0540   27     320/ 15/ 20 1015.6R
SISTER BAY       0505   28      10/ 11/ 15   N/A
KEWAUNEE LAKESHO 0530   31     270/  3/  6 1014.7R
SHEBOYGAN LAKESH 0500   35     250/  7/  8 1016.1R
PORT WASHINGTON  0530   32     260/  3/  4 1017.6R
MILWAUKEE LAKESH 0530   37     220/  7/  9   N/A
KENOSHA   LAKESH 0500   39     230/  9/ 14 1016.9
$$

TC  - TEMPERATURE IN CELSIUS
VSB - VISIBILITY IN STATUTE MILES
WCI - WIND CHILL INDEX
HX  - HEAT INDEX





USA.gov is the U.S. government's official web portal to all federal, state and local government web resources and services.